owner,sensor,date,latitude,longitude,air_pressure(mBar),qcFlag 
TABS,ioos:station:wmo:42045:1,2019-11-01T04:00:00Z,26.2168,-96.4998,1027.62,11111222 
TABS,ioos:station:wmo:42045:1,2019-11-01T05:00:00Z,26.2168,-96.4998,1027.23,11111222 
TABS,ioos:station:wmo:42045:1,2019-11-01T06:00:00Z,26.2168,-96.4998,1026.41,11111222 
TABS,ioos:station:wmo:42045:1,2019-11-01T07:00:00Z,26.2168,-96.4998,1026.42,11111222 
TABS,ioos:station:wmo:42045:1,2019-11-01T08:00:00Z,26.2168,-96.4998,1025.83,11111222 
TABS,ioos:station:wmo:42045:1,2019-11-01T09:00:00Z,26.2168,-96.4998,1026.16,11111222 
TABS,ioos:station:wmo:42045:1,2019-11-01T10:00:00Z,26.2168,-96.4998,1026.05,11111222 
TABS,ioos:station:wmo:42045:1,2019-11-01T10:30:00Z,26.2168,-96.4998,1026.24,11111222 
TABS,ioos:station:wmo:42045:1,2019-11-01T12:00:00Z,26.2168,-96.4998,1026.24,11111222 
TABS,ioos:station:wmo:42045:1,2019-11-01T13:00:00Z,26.2168,-96.4998,1026.22,11111222 
TABS,ioos:station:wmo:42045:1,2019-11-01T14:00:00Z,26.2168,-96.4998,1026.3,11111222 
TABS,ioos:station:wmo:42045:1,2019-11-01T15:00:00Z,26.2168,-96.4998,1026.46,11111222 
TABS,ioos:station:wmo:42045:1,2019-11-01T16:00:00Z,26.2168,-96.4998,1026.26,11111222 
TABS,ioos:station:wmo:42045:1,2019-11-01T17:00:00Z,26.2168,-96.4998,1025.57,11111222 
TABS,ioos:station:wmo:42045:1,2019-11-01T17:30:00Z,26.2168,-96.4998,1024.99,11111222 
TABS,ioos:station:wmo:42045:1,2019-11-01T19:00:00Z,26.2168,-96.4998,1023.59,11111222 
TABS,ioos:station:wmo:42045:1,2019-11-01T20:00:00Z,26.2168,-96.4998,1022.67,11111222 
TABS,ioos:station:wmo:42045:1,2019-11-01T20:30:00Z,26.2168,-96.4998,1022.48,11111222 
TABS,ioos:station:wmo:42045:1,2019-11-01T22:00:00Z,26.2168,-96.4998,1022.11,11111222 
TABS,ioos:station:wmo:42045:1,2019-11-01T23:30:00Z,26.2168,-96.4998,1022.26,11111222 
TABS,ioos:station:wmo:42045:1,2019-11-02T04:00:00Z,26.2168,-96.4998,1022.81,11111222 
TABS,ioos:station:wmo:42045:1,2019-11-02T05:00:00Z,26.2168,-96.4998,1022.78,11111222 
TABS,ioos:station:wmo:42045:1,2019-11-02T06:00:00Z,26.2168,-96.4998,1022.64,11111222 
TABS,ioos:station:wmo:42045:1,2019-11-02T07:00:00Z,26.2168,-96.4998,1022.78,11111222 
TABS,ioos:station:wmo:42045:1,2019-11-02T08:00:00Z,26.2168,-96.4998,1022.72,11111222 
TABS,ioos:station:wmo:42045:1,2019-11-02T09:00:00Z,26.2168,-96.4998,1022.71,11111222 
TABS,ioos:station:wmo:42045:1,2019-11-02T09:30:00Z,26.2168,-96.4998,1022.95,11111222 
TABS,ioos:station:wmo:42045:1,2019-11-02T11:00:00Z,26.2168,-96.4998,1023.56,11111222 
TABS,ioos:station:wmo:42045:1,2019-11-02T12:00:00Z,26.2168,-96.4998,1023.96,11111222 
TABS,ioos:station:wmo:42045:1,2019-11-02T12:30:00Z,26.2168,-96.4998,1024.36,11111222 
TABS,ioos:station:wmo:42045:1,2019-11-02T14:00:00Z,26.2168,-96.4998,1025.2,11111222 
TABS,ioos:station:wmo:42045:1,2019-11-02T15:00:00Z,26.2168,-96.4998,1025.72,11111222 
TABS,ioos:station:wmo:42045:1,2019-11-02T16:00:00Z,26.2168,-96.4998,1025.91,11111222 
TABS,ioos:station:wmo:42045:1,2019-11-02T17:00:00Z,26.2168,-96.4998,1025.87,11111222 
TABS,ioos:station:wmo:42045:1,2019-11-02T17:30:00Z,26.2168,-96.4998,1025.68,11111222 
TABS,ioos:station:wmo:42045:1,2019-11-02T19:00:00Z,26.2168,-96.4998,1024.34,11111222 
TABS,ioos:station:wmo:42045:1,2019-11-02T21:00:00Z,26.2168,-96.4998,1023.95,11111222 
TABS,ioos:station:wmo:42045:1,2019-11-02T22:00:00Z,26.2168,-96.4998,1024.09,11111222 
TABS,ioos:station:wmo:42045:1,2019-11-02T23:00:00Z,26.2168,-96.4998,1024.1,11111222 
TABS,ioos:station:wmo:42045:1,2019-11-02T23:30:00Z,26.2168,-96.4998,1023.88,11111222 
TABS,ioos:station:wmo:42045:1,2019-11-03T04:00:00Z,26.2168,-96.4998,1024.38,11111222 
TABS,ioos:station:wmo:42045:1,2019-11-03T05:00:00Z,26.2168,-96.4998,1024.26,11111222 
TABS,ioos:station:wmo:42045:1,2019-11-03T06:00:00Z,26.2168,-96.4998,1023.81,11111222 
TABS,ioos:station:wmo:42045:1,2019-11-03T07:00:00Z,26.2168,-96.4998,1023.44,11111222 
TABS,ioos:station:wmo:42045:1,2019-11-03T07:30:00Z,26.2168,-96.4998,1023.53,11111222 
TABS,ioos:station:wmo:42045:1,2019-11-03T09:00:00Z,26.2168,-96.4998,1022.9,11111222 
TABS,ioos:station:wmo:42045:1,2019-11-03T10:00:00Z,26.2168,-96.4998,1022.76,11111222 
TABS,ioos:station:wmo:42045:1,2019-11-03T11:00:00Z,26.2168,-96.4998,1022.38,11111222 
TABS,ioos:station:wmo:42045:1,2019-11-03T12:00:00Z,26.2168,-96.4998,1022.46,11111222 
TABS,ioos:station:wmo:42045:1,2019-11-03T13:00:00Z,26.2168,-96.4998,1022.45,11111222 
TABS,ioos:station:wmo:42045:1,2019-11-03T13:30:00Z,26.2168,-96.4998,1022.62,11111222 
TABS,ioos:station:wmo:42045:1,2019-11-03T15:00:00Z,26.2168,-96.4998,1022.77,11111222 
TABS,ioos:station:wmo:42045:1,2019-11-03T16:00:00Z,26.2168,-96.4998,1022.66,11111222 
TABS,ioos:station:wmo:42045:1,2019-11-03T17:00:00Z,26.2168,-96.4998,1022.17,11111222 
TABS,ioos:station:wmo:42045:1,2019-11-03T18:00:00Z,26.2168,-96.4998,1021.35,11111222 
TABS,ioos:station:wmo:42045:1,2019-11-03T19:00:00Z,26.2168,-96.4998,1020.08,11111222 
TABS,ioos:station:wmo:42045:1,2019-11-03T20:00:00Z,26.2168,-96.4998,1019.17,11111222 
TABS,ioos:station:wmo:42045:1,2019-11-03T21:00:00Z,26.2168,-96.4998,1018.47,11111222 
TABS,ioos:station:wmo:42045:1,2019-11-03T22:00:00Z,26.2168,-96.4998,1018.3,11111222 
TABS,ioos:station:wmo:42045:1,2019-11-03T23:00:00Z,26.2168,-96.4998,1018.16,11111222 
TABS,ioos:station:wmo:42045:1,2019-11-03T23:30:00Z,26.2168,-96.4998,1017.95,11111222 
TABS,ioos:station:wmo:42045:1,2019-11-04T05:00:00Z,26.2168,-96.4998,1017.43,11111222 
TABS,ioos:station:wmo:42045:1,2019-11-04T15:30:00Z,26.2168,-96.4998,1017.1,11111222 
TABS,ioos:station:wmo:42045:1,2019-11-04T16:00:00Z,26.2168,-96.4998,1017.23,11111222 
TABS,ioos:station:wmo:42045:1,2019-11-04T17:00:00Z,26.2168,-96.4998,1017.08,11111222 
TABS,ioos:station:wmo:42045:1,2019-11-04T18:00:00Z,26.2168,-96.4998,1016.22,11111222 
TABS,ioos:station:wmo:42045:1,2019-11-04T19:00:00Z,26.2168,-96.4998,1015.21,11111222 
TABS,ioos:station:wmo:42045:1,2019-11-04T20:00:00Z,26.2168,-96.4998,1014.64,11111222 
TABS,ioos:station:wmo:42045:1,2019-11-04T21:00:00Z,26.2168,-96.4998,1014.24,11111222 
TABS,ioos:station:wmo:42045:1,2019-11-04T22:00:00Z,26.2168,-96.4998,1014.12,11111222 
TABS,ioos:station:wmo:42045:1,2019-11-04T23:00:00Z,26.2168,-96.4998,1014.04,11111222 
TABS,ioos:station:wmo:42045:1,2019-11-04T23:30:00Z,26.2168,-96.4998,1014.08,11111222 
TABS,ioos:station:wmo:42045:1,2019-11-05T04:30:00Z,26.2168,-96.4998,1016.12,11111222 
TABS,ioos:station:wmo:42045:1,2019-11-05T06:00:00Z,26.2168,-96.4998,1015.9,11111222 
TABS,ioos:station:wmo:42045:1,2019-11-05T07:00:00Z,26.2168,-96.4998,1015.72,11111222 
TABS,ioos:station:wmo:42045:1,2019-11-05T08:00:00Z,26.2168,-96.4998,1015.47,11111222 
TABS,ioos:station:wmo:42045:1,2019-11-05T09:00:00Z,26.2168,-96.4998,1015.26,11111222 
TABS,ioos:station:wmo:42045:1,2019-11-05T10:00:00Z,26.2168,-96.4998,1015.88,11111222 
TABS,ioos:station:wmo:42045:1,2019-11-05T11:00:00Z,26.2168,-96.4998,1016.23,11111222 
TABS,ioos:station:wmo:42045:1,2019-11-05T12:00:00Z,26.2168,-96.4998,1017.21,11111222 
TABS,ioos:station:wmo:42045:1,2019-11-05T13:00:00Z,26.2168,-96.4998,1018.03,11111222 
TABS,ioos:station:wmo:42045:1,2019-11-05T13:30:00Z,26.2168,-96.4998,1018.2,11111222 
TABS,ioos:station:wmo:42045:1,2019-11-05T15:00:00Z,26.2168,-96.4998,1019.27,11111222 
TABS,ioos:station:wmo:42045:1,2019-11-05T15:30:00Z,26.2168,-96.4998,1019.61,11111222 
TABS,ioos:station:wmo:42045:1,2019-11-05T17:00:00Z,26.2168,-96.4998,1019.43,11111222 
TABS,ioos:station:wmo:42045:1,2019-11-05T18:00:00Z,26.2168,-96.4998,1018.64,11111222 
TABS,ioos:station:wmo:42045:1,2019-11-05T19:00:00Z,26.2168,-96.4998,1018.16,11111222 
TABS,ioos:station:wmo:42045:1,2019-11-05T20:00:00Z,26.2168,-96.4998,1017.81,11111222 
TABS,ioos:station:wmo:42045:1,2019-11-05T21:00:00Z,26.2168,-96.4998,1018.05,11111222 
TABS,ioos:station:wmo:42045:1,2019-11-05T22:00:00Z,26.2168,-96.4998,1018.33,11111222 
TABS,ioos:station:wmo:42045:1,2019-11-05T23:00:00Z,26.2168,-96.4998,1018.91,11111222 
TABS,ioos:station:wmo:42045:1,2019-11-05T23:30:00Z,26.2168,-96.4998,1018.95,11111222 
TABS,ioos:station:wmo:42045:1,2019-11-06T05:00:00Z,26.2168,-96.4998,1020.56,11111222 
TABS,ioos:station:wmo:42045:1,2019-11-06T06:00:00Z,26.2168,-96.4998,1020.34,11111222 
TABS,ioos:station:wmo:42045:1,2019-11-06T06:30:00Z,26.2168,-96.4998,1020.17,11111222 
TABS,ioos:station:wmo:42045:1,2019-11-06T08:00:00Z,26.2168,-96.4998,1019.71,11111222 
TABS,ioos:station:wmo:42045:1,2019-11-06T09:00:00Z,26.2168,-96.4998,1019.47,11111222 
TABS,ioos:station:wmo:42045:1,2019-11-06T10:00:00Z,26.2168,-96.4998,1019.59,11111222 
TABS,ioos:station:wmo:42045:1,2019-11-06T11:00:00Z,26.2168,-96.4998,1019.91,11111222 
TABS,ioos:station:wmo:42045:1,2019-11-06T12:00:00Z,26.2168,-96.4998,1020.25,11111222 
TABS,ioos:station:wmo:42045:1,2019-11-06T13:00:00Z,26.2168,-96.4998,1020.55,11111222 
TABS,ioos:station:wmo:42045:1,2019-11-06T14:00:00Z,26.2168,-96.4998,1020.99,11111222 
TABS,ioos:station:wmo:42045:1,2019-11-06T15:00:00Z,26.2168,-96.4998,1021.5,11111222 
TABS,ioos:station:wmo:42045:1,2019-11-06T16:00:00Z,26.2168,-96.4998,1021.82,11111222 
TABS,ioos:station:wmo:42045:1,2019-11-06T17:00:00Z,26.2168,-96.4998,1020.82,11111222 
TABS,ioos:station:wmo:42045:1,2019-11-06T17:30:00Z,26.2168,-96.4998,1020.44,11111222 
TABS,ioos:station:wmo:42045:1,2019-11-06T18:30:00Z,26.2168,-96.4998,1019.35,11111222 
TABS,ioos:station:wmo:42045:1,2019-11-06T20:00:00Z,26.2168,-96.4998,1018.2,11111222 
TABS,ioos:station:wmo:42045:1,2019-11-06T21:00:00Z,26.2168,-96.4998,1017.74,11111222 
TABS,ioos:station:wmo:42045:1,2019-11-06T22:00:00Z,26.2168,-96.4998,1017.72,11111222 
TABS,ioos:station:wmo:42045:1,2019-11-06T23:00:00Z,26.2168,-96.4998,1017.7,11111222 
TABS,ioos:station:wmo:42045:1,2019-11-06T23:30:00Z,26.2168,-96.4998,1017.98,11111222 
TABS,ioos:station:wmo:42045:1,2019-11-07T04:00:00Z,26.2168,-96.4998,1018.14,11111222 
TABS,ioos:station:wmo:42045:1,2019-11-07T05:30:00Z,26.2168,-96.4998,1017.6,11111222 
TABS,ioos:station:wmo:42045:1,2019-11-07T07:00:00Z,26.2168,-96.4998,1016.88,11111222 
TABS,ioos:station:wmo:42045:1,2019-11-07T08:00:00Z,26.2168,-96.4998,1016.72,11111222 
TABS,ioos:station:wmo:42045:1,2019-11-07T09:00:00Z,26.2168,-96.4998,1016.47,11111222 
TABS,ioos:station:wmo:42045:1,2019-11-07T10:00:00Z,26.2168,-96.4998,1016.02,11111222 
TABS,ioos:station:wmo:42045:1,2019-11-07T11:00:00Z,26.2168,-96.4998,1016.07,11111222 
TABS,ioos:station:wmo:42045:1,2019-11-07T12:00:00Z,26.2168,-96.4998,1016.58,11111222 
TABS,ioos:station:wmo:42045:1,2019-11-07T13:00:00Z,26.2168,-96.4998,1016.93,11111222 
TABS,ioos:station:wmo:42045:1,2019-11-07T14:00:00Z,26.2168,-96.4998,1017.79,11111222 
TABS,ioos:station:wmo:42045:1,2019-11-07T15:00:00Z,26.2168,-96.4998,1018.37,11111222 
TABS,ioos:station:wmo:42045:1,2019-11-07T16:00:00Z,26.2168,-96.4998,1018.52,11111222 
TABS,ioos:station:wmo:42045:1,2019-11-07T17:00:00Z,26.2168,-96.4998,1018.05,11111222 
TABS,ioos:station:wmo:42045:1,2019-11-07T18:00:00Z,26.2168,-96.4998,1017.4,11111222 
TABS,ioos:station:wmo:42045:1,2019-11-07T18:30:00Z,26.2168,-96.4998,1016.88,11111222 
TABS,ioos:station:wmo:42045:1,2019-11-07T20:00:00Z,26.2168,-96.4998,1015.8,11111222 
TABS,ioos:station:wmo:42045:1,2019-11-07T21:00:00Z,26.2168,-96.4998,1015.51,11111222 
TABS,ioos:station:wmo:42045:1,2019-11-07T22:00:00Z,26.2168,-96.4998,1015.81,11111222 
TABS,ioos:station:wmo:42045:1,2019-11-07T23:00:00Z,26.2168,-96.4998,1016.18,11111222 
TABS,ioos:station:wmo:42045:1,2019-11-07T23:30:00Z,26.2168,-96.4998,1016.77,11111222 
TABS,ioos:station:wmo:42045:1,2019-11-08T05:00:00Z,26.2168,-96.4998,1018.83,11111222 
TABS,ioos:station:wmo:42045:1,2019-11-08T06:00:00Z,26.2168,-96.4998,1018.76,11111222 
TABS,ioos:station:wmo:42045:1,2019-11-08T07:00:00Z,26.2168,-96.4998,1018.73,11111222 
TABS,ioos:station:wmo:42045:1,2019-11-08T08:00:00Z,26.2168,-96.4998,1018.22,11111222 
TABS,ioos:station:wmo:42045:1,2019-11-08T09:00:00Z,26.2168,-96.4998,1018.24,11111222 
TABS,ioos:station:wmo:42045:1,2019-11-08T10:00:00Z,26.2168,-96.4998,1018.45,11111222 
TABS,ioos:station:wmo:42045:1,2019-11-08T11:00:00Z,26.2168,-96.4998,1019.22,11111222 
TABS,ioos:station:wmo:42045:1,2019-11-08T12:00:00Z,26.2168,-96.4998,1019.73,11111222 
TABS,ioos:station:wmo:42045:1,2019-11-08T13:00:00Z,26.2168,-96.4998,1020.74,11111222 
TABS,ioos:station:wmo:42045:1,2019-11-08T13:30:00Z,26.2168,-96.4998,1021.08,11111222 
TABS,ioos:station:wmo:42045:1,2019-11-08T14:30:00Z,26.2168,-96.4998,1022.45,11111222 
TABS,ioos:station:wmo:42045:1,2019-11-08T16:00:00Z,26.2168,-96.4998,1022.4,11111222 
TABS,ioos:station:wmo:42045:1,2019-11-08T17:00:00Z,26.2168,-96.4998,1022.63,11111222 
TABS,ioos:station:wmo:42045:1,2019-11-08T18:00:00Z,26.2168,-96.4998,1021.26,11111222 
TABS,ioos:station:wmo:42045:1,2019-11-08T19:00:00Z,26.2168,-96.4998,1021.43,11111222 
TABS,ioos:station:wmo:42045:1,2019-11-08T20:00:00Z,26.2168,-96.4998,1020.91,11111222 
TABS,ioos:station:wmo:42045:1,2019-11-08T20:30:00Z,26.2168,-96.4998,1020.8,11111222 
TABS,ioos:station:wmo:42045:1,2019-11-08T22:00:00Z,26.2168,-96.4998,1021.28,11111222 
TABS,ioos:station:wmo:42045:1,2019-11-08T23:00:00Z,26.2168,-96.4998,1021.57,11111222 
TABS,ioos:station:wmo:42045:1,2019-11-08T23:30:00Z,26.2168,-96.4998,1021.95,11111222 
TABS,ioos:station:wmo:42045:1,2019-11-09T05:00:00Z,26.2168,-96.4998,1023.58,11111222 
TABS,ioos:station:wmo:42045:1,2019-11-09T06:00:00Z,26.2168,-96.4998,1023.25,11111222 
TABS,ioos:station:wmo:42045:1,2019-11-09T07:00:00Z,26.2168,-96.4998,1022.93,11111222 
TABS,ioos:station:wmo:42045:1,2019-11-09T09:00:00Z,26.2168,-96.4998,1022.08,11111222 
TABS,ioos:station:wmo:42045:1,2019-11-09T09:30:00Z,26.2168,-96.4998,1022.07,11111222 
TABS,ioos:station:wmo:42045:1,2019-11-09T10:30:00Z,26.2168,-96.4998,1022.17,11111222 
TABS,ioos:station:wmo:42045:1,2019-11-09T11:30:00Z,26.2168,-96.4998,1022.14,11111222 
TABS,ioos:station:wmo:42045:1,2019-11-09T12:30:00Z,26.2168,-96.4998,1023.14,11111222 
TABS,ioos:station:wmo:42045:1,2019-11-09T14:00:00Z,26.2168,-96.4998,1023.49,11111222 
TABS,ioos:station:wmo:42045:1,2019-11-09T14:30:00Z,26.2168,-96.4998,1023.73,11111222 
TABS,ioos:station:wmo:42045:1,2019-11-09T15:30:00Z,26.2168,-96.4998,1024.32,11111222 
TABS,ioos:station:wmo:42045:1,2019-11-09T17:00:00Z,26.2168,-96.4998,1023.86,11111222 
TABS,ioos:station:wmo:42045:1,2019-11-09T19:00:00Z,26.2168,-96.4998,1022.08,11111222 
TABS,ioos:station:wmo:42045:1,2019-11-09T20:00:00Z,26.2168,-96.4998,1021.46,11111222 
TABS,ioos:station:wmo:42045:1,2019-11-09T21:00:00Z,26.2168,-96.4998,1021.38,11111222 
TABS,ioos:station:wmo:42045:1,2019-11-09T22:00:00Z,26.2168,-96.4998,1021.35,11111222 
TABS,ioos:station:wmo:42045:1,2019-11-09T23:00:00Z,26.2168,-96.4998,1021.28,11111222 
TABS,ioos:station:wmo:42045:1,2019-11-09T23:30:00Z,26.2168,-96.4998,1021.47,11111222 
TABS,ioos:station:wmo:42045:1,2019-11-10T05:00:00Z,26.2168,-96.4998,1021.62,11111222 
TABS,ioos:station:wmo:42045:1,2019-11-10T06:00:00Z,26.2168,-96.4998,1021.56,11111222 
TABS,ioos:station:wmo:42045:1,2019-11-10T07:00:00Z,26.2168,-96.4998,1021.06,11111222 
TABS,ioos:station:wmo:42045:1,2019-11-10T08:00:00Z,26.2168,-96.4998,1020.53,11111222 
TABS,ioos:station:wmo:42045:1,2019-11-10T09:00:00Z,26.2168,-96.4998,1020.26,11111222 
TABS,ioos:station:wmo:42045:1,2019-11-10T10:00:00Z,26.2168,-96.4998,1020.29,11111222 
TABS,ioos:station:wmo:42045:1,2019-11-10T11:00:00Z,26.2168,-96.4998,1020.03,11111222 
TABS,ioos:station:wmo:42045:1,2019-11-10T12:00:00Z,26.2168,-96.4998,1020.05,11111222 
TABS,ioos:station:wmo:42045:1,2019-11-10T13:00:00Z,26.2168,-96.4998,1020.44,11111222 
TABS,ioos:station:wmo:42045:1,2019-11-10T14:00:00Z,26.2168,-96.4998,1020.81,11111222 
TABS,ioos:station:wmo:42045:1,2019-11-10T15:00:00Z,26.2168,-96.4998,1021.03,11111222 
TABS,ioos:station:wmo:42045:1,2019-11-10T16:00:00Z,26.2168,-96.4998,1020.96,11111222 
TABS,ioos:station:wmo:42045:1,2019-11-10T16:30:00Z,26.2168,-96.4998,1020.77,11111222 
TABS,ioos:station:wmo:42045:1,2019-11-10T18:00:00Z,26.2168,-96.4998,1019.05,11111222 
TABS,ioos:station:wmo:42045:1,2019-11-10T19:00:00Z,26.2168,-96.4998,1018.13,11111222 
TABS,ioos:station:wmo:42045:1,2019-11-10T20:00:00Z,26.2168,-96.4998,1017.41,11111222 
TABS,ioos:station:wmo:42045:1,2019-11-10T21:00:00Z,26.2168,-96.4998,1016.6,11111222 
TABS,ioos:station:wmo:42045:1,2019-11-10T22:00:00Z,26.2168,-96.4998,1016.18,11111222 
TABS,ioos:station:wmo:42045:1,2019-11-10T23:00:00Z,26.2168,-96.4998,1015.93,11111222 
TABS,ioos:station:wmo:42045:1,2019-11-10T23:30:00Z,26.2168,-96.4998,1015.67,11111222 
TABS,ioos:station:wmo:42045:1,2019-11-11T05:00:00Z,26.2168,-96.4998,1016.31,11111222 
TABS,ioos:station:wmo:42045:1,2019-11-11T06:00:00Z,26.2168,-96.4998,1015.39,11111222 
TABS,ioos:station:wmo:42045:1,2019-11-11T07:00:00Z,26.2168,-96.4998,1014.87,11111222 
TABS,ioos:station:wmo:42045:1,2019-11-11T08:00:00Z,26.2168,-96.4998,1014.35,11111222 
TABS,ioos:station:wmo:42045:1,2019-11-11T09:00:00Z,26.2168,-96.4998,1013.87,11111222 
TABS,ioos:station:wmo:42045:1,2019-11-11T10:00:00Z,26.2168,-96.4998,1013.49,11111222 
TABS,ioos:station:wmo:42045:1,2019-11-11T11:00:00Z,26.2168,-96.4998,1013.42,11111222 
TABS,ioos:station:wmo:42045:1,2019-11-11T12:00:00Z,26.2168,-96.4998,1013.75,11111222 
TABS,ioos:station:wmo:42045:1,2019-11-11T13:00:00Z,26.2168,-96.4998,1014.22,11111222 
TABS,ioos:station:wmo:42045:1,2019-11-11T14:00:00Z,26.2168,-96.4998,1015.13,11111222 
TABS,ioos:station:wmo:42045:1,2019-11-11T15:00:00Z,26.2168,-96.4998,1015.41,11111222 
TABS,ioos:station:wmo:42045:1,2019-11-11T16:00:00Z,26.2168,-96.4998,1015.34,11111222 
TABS,ioos:station:wmo:42045:1,2019-11-11T17:00:00Z,26.2168,-96.4998,1014.84,11111222 
TABS,ioos:station:wmo:42045:1,2019-11-11T18:00:00Z,26.2168,-96.4998,1014.15,11111222 
TABS,ioos:station:wmo:42045:1,2019-11-11T19:00:00Z,26.2168,-96.4998,1013.32,11111222 
TABS,ioos:station:wmo:42045:1,2019-11-11T20:00:00Z,26.2168,-96.4998,1012.57,11111222 
TABS,ioos:station:wmo:42045:1,2019-11-11T21:00:00Z,26.2168,-96.4998,1012.95,11111222 
TABS,ioos:station:wmo:42045:1,2019-11-11T22:00:00Z,26.2168,-96.4998,1012.83,11111222 
TABS,ioos:station:wmo:42045:1,2019-11-11T23:00:00Z,26.2168,-96.4998,1013.69,11111222 
TABS,ioos:station:wmo:42045:1,2019-11-11T23:30:00Z,26.2168,-96.4998,1014.67,11111222 
TABS,ioos:station:wmo:42045:1,2019-11-12T05:00:00Z,26.2168,-96.4998,1019.73,11111222 
TABS,ioos:station:wmo:42045:1,2019-11-12T06:00:00Z,26.2168,-96.4998,1020.39,11111222 
TABS,ioos:station:wmo:42045:1,2019-11-12T07:00:00Z,26.2168,-96.4998,1021.42,11111222 
TABS,ioos:station:wmo:42045:1,2019-11-12T09:00:00Z,26.2168,-96.4998,1022.43,11111222 
TABS,ioos:station:wmo:42045:1,2019-11-12T10:00:00Z,26.2168,-96.4998,1022.95,11111222 
TABS,ioos:station:wmo:42045:1,2019-11-12T11:00:00Z,26.2168,-96.4998,1023.22,11111222 
TABS,ioos:station:wmo:42045:1,2019-11-12T12:00:00Z,26.2168,-96.4998,1024.65,11111222 
TABS,ioos:station:wmo:42045:1,2019-11-12T13:00:00Z,26.2168,-96.4998,1025.71,11111222 
TABS,ioos:station:wmo:42045:1,2019-11-12T13:30:00Z,26.2168,-96.4998,1025.8,11111222 
TABS,ioos:station:wmo:42045:1,2019-11-12T14:30:00Z,26.2168,-96.4998,1026.84,11111222 
TABS,ioos:station:wmo:42045:1,2019-11-12T16:00:00Z,26.2168,-96.4998,1029.01,11111222 
TABS,ioos:station:wmo:42045:1,2019-11-12T17:00:00Z,26.2168,-96.4998,1029.41,11111222 
TABS,ioos:station:wmo:42045:1,2019-11-12T18:00:00Z,26.2168,-96.4998,1028.45,11111222 
TABS,ioos:station:wmo:42045:1,2019-11-12T18:30:00Z,26.2168,-96.4998,1028.04,11111222 
TABS,ioos:station:wmo:42045:1,2019-11-12T20:00:00Z,26.2168,-96.4998,1027.15,11111222 
TABS,ioos:station:wmo:42045:1,2019-11-12T20:30:00Z,26.2168,-96.4998,1027.15,11111222 
TABS,ioos:station:wmo:42045:1,2019-11-12T22:00:00Z,26.2168,-96.4998,1026.5,11111222 
TABS,ioos:station:wmo:42045:1,2019-11-12T23:00:00Z,26.2168,-96.4998,1026.49,11111222 
TABS,ioos:station:wmo:42045:1,2019-11-12T23:30:00Z,26.2168,-96.4998,1026.37,11111222 
TABS,ioos:station:wmo:42045:1,2019-11-13T04:30:00Z,26.2168,-96.4998,1026.75,11111222 
TABS,ioos:station:wmo:42045:1,2019-11-13T06:00:00Z,26.2168,-96.4998,1026.48,11111222 
TABS,ioos:station:wmo:42045:1,2019-11-13T07:00:00Z,26.2168,-96.4998,1026.1,11111222 
TABS,ioos:station:wmo:42045:1,2019-11-13T08:00:00Z,26.2168,-96.4998,1025.52,11111222 
TABS,ioos:station:wmo:42045:1,2019-11-13T08:30:00Z,26.2168,-96.4998,1025.01,11111222 
TABS,ioos:station:wmo:42045:1,2019-11-13T10:00:00Z,26.2168,-96.4998,1024.44,11111222 
TABS,ioos:station:wmo:42045:1,2019-11-13T11:00:00Z,26.2168,-96.4998,1023.74,11111222 
TABS,ioos:station:wmo:42045:1,2019-11-13T11:30:00Z,26.2168,-96.4998,1023.65,11111222 
TABS,ioos:station:wmo:42045:1,2019-11-13T13:00:00Z,26.2168,-96.4998,1024.04,11111222 
TABS,ioos:station:wmo:42045:1,2019-11-13T14:00:00Z,26.2168,-96.4998,1024.38,11111222 
TABS,ioos:station:wmo:42045:1,2019-11-13T15:00:00Z,26.2168,-96.4998,1024.06,11111222 
TABS,ioos:station:wmo:42045:1,2019-11-13T15:30:00Z,26.2168,-96.4998,1024.11,11111222 
TABS,ioos:station:wmo:42045:1,2019-11-13T17:00:00Z,26.2168,-96.4998,1023.37,11111222 
TABS,ioos:station:wmo:42045:1,2019-11-13T18:00:00Z,26.2168,-96.4998,1022.33,11111222 
TABS,ioos:station:wmo:42045:1,2019-11-13T19:00:00Z,26.2168,-96.4998,1021.11,11111222 
TABS,ioos:station:wmo:42045:1,2019-11-13T20:00:00Z,26.2168,-96.4998,1019.58,11111222 
TABS,ioos:station:wmo:42045:1,2019-11-13T21:00:00Z,26.2168,-96.4998,1019.3,11111222 
TABS,ioos:station:wmo:42045:1,2019-11-13T22:00:00Z,26.2168,-96.4998,1019.04,11111222 
TABS,ioos:station:wmo:42045:1,2019-11-13T23:00:00Z,26.2168,-96.4998,1018.72,11111222 
TABS,ioos:station:wmo:42045:1,2019-11-13T23:30:00Z,26.2168,-96.4998,1018.66,11111222 
TABS,ioos:station:wmo:42045:1,2019-11-14T05:00:00Z,26.2168,-96.4998,1018.28,11111222 
TABS,ioos:station:wmo:42045:1,2019-11-14T05:30:00Z,26.2168,-96.4998,1017.92,11111222 
TABS,ioos:station:wmo:42045:1,2019-11-14T07:00:00Z,26.2168,-96.4998,1017.38,11111222 
TABS,ioos:station:wmo:42045:1,2019-11-14T08:00:00Z,26.2168,-96.4998,1017.27,11111222 
TABS,ioos:station:wmo:42045:1,2019-11-14T09:00:00Z,26.2168,-96.4998,1017.38,11111222 
TABS,ioos:station:wmo:42045:1,2019-11-14T10:30:00Z,26.2168,-96.4998,1017.35,11111222 
TABS,ioos:station:wmo:42045:1,2019-11-14T12:00:00Z,26.2168,-96.4998,1017.77,11111222 
TABS,ioos:station:wmo:42045:1,2019-11-14T13:00:00Z,26.2168,-96.4998,1018.39,11111222 
TABS,ioos:station:wmo:42045:1,2019-11-14T14:00:00Z,26.2168,-96.4998,1019.03,11111222 
TABS,ioos:station:wmo:42045:1,2019-11-14T16:00:00Z,26.2168,-96.4998,1019.86,11111222 
TABS,ioos:station:wmo:42045:1,2019-11-14T17:00:00Z,26.2168,-96.4998,1019.9,11111222 
TABS,ioos:station:wmo:42045:1,2019-11-14T18:00:00Z,26.2168,-96.4998,1019.81,11111222 
TABS,ioos:station:wmo:42045:1,2019-11-14T19:00:00Z,26.2168,-96.4998,1019.43,11111222 
TABS,ioos:station:wmo:42045:1,2019-11-14T20:00:00Z,26.2168,-96.4998,1018.87,11111222 
TABS,ioos:station:wmo:42045:1,2019-11-14T21:00:00Z,26.2168,-96.4998,1018.75,11111222 
TABS,ioos:station:wmo:42045:1,2019-11-14T22:00:00Z,26.2168,-96.4998,1019.17,11111222 
TABS,ioos:station:wmo:42045:1,2019-11-14T23:00:00Z,26.2168,-96.4998,1020.37,11111222 
TABS,ioos:station:wmo:42045:1,2019-11-14T23:30:00Z,26.2168,-96.4998,1020.36,11111222 
TABS,ioos:station:wmo:42045:1,2019-11-15T05:00:00Z,26.2168,-96.4998,1023.49,11111222 
TABS,ioos:station:wmo:42045:1,2019-11-15T05:30:00Z,26.2168,-96.4998,1023.47,11111222 
TABS,ioos:station:wmo:42045:1,2019-11-15T06:30:00Z,26.2168,-96.4998,1023.45,11111222 
TABS,ioos:station:wmo:42045:1,2019-11-15T08:00:00Z,26.2168,-96.4998,1023.37,11111222 
TABS,ioos:station:wmo:42045:1,2019-11-15T09:00:00Z,26.2168,-96.4998,1023.28,11111222 
TABS,ioos:station:wmo:42045:1,2019-11-15T10:00:00Z,26.2168,-96.4998,1023.79,11111222 
TABS,ioos:station:wmo:42045:1,2019-11-15T11:00:00Z,26.2168,-96.4998,1025.02,11111222 
TABS,ioos:station:wmo:42045:1,2019-11-15T12:00:00Z,26.2168,-96.4998,1024.8,11111222 
TABS,ioos:station:wmo:42045:1,2019-11-15T13:00:00Z,26.2168,-96.4998,1025.6,11111222 
TABS,ioos:station:wmo:42045:1,2019-11-15T14:00:00Z,26.2168,-96.4998,1026.34,11111222 
TABS,ioos:station:wmo:42045:1,2019-11-15T15:00:00Z,26.2168,-96.4998,1026.76,11111222 